| time (UTC) | temp C | wind direction | speed KPH | gust KPH | rain 1hr cm | rain 24hr cm | rain mn cm | humidity % | barometer mb |
| 20260504003216 | 22 | 113 | 3.2 | 9.7 | 0.00 | 0.00 | 0.00 | 33 | 1020.6 |
| 20260504002616 | 22 | 125 | 3.2 | 11.3 | 0.00 | 0.00 | 0.00 | 34 | 1020.5 |
| 20260504002041 | 22 | 165 | 3.2 | 12.9 | 0.00 | 0.00 | 0.00 | 34 | 1020.5 |
| 20260504001416 | 22 | 161 | 3.2 | 14.5 | 0.00 | 0.00 | 0.00 | 32 | 1020.5 |
| 20260504000829 | 22 | 152 | 4.8 | 12.9 | 0.00 | 0.00 | 0.00 | 31 | 1020.5 |
| 20260504000219 | 22 | 112 | 4.8 | 14.5 | 0.00 | 0.00 | 0.00 | 33 | 1020.5 |
| 20260503235629 | 23 | 113 | 6.4 | 16.1 | 0.00 | 0.00 | 0.00 | 32 | 1020.4 |
| 20260503235018 | 22 | 127 | 4.8 | 12.9 | 0.00 | 0.00 | 0.00 | 33 | 1020.5 |
| 20260503234429 | 23 | 142 | 1.6 | 11.3 | 0.00 | 0.00 | 0.00 | 31 | 1020.5 |
| 20260503233842 | 23 | 127 | 0.0 | 11.3 | 0.00 | 0.00 | 0.00 | 34 | 1020.6 |
| 20260503233229 | 23 | 139 | 3.2 | 14.5 | 0.00 | 0.00 | 0.00 | 34 | 1020.7 |
| 20260503232617 | 23 | 125 | 4.8 | 24.1 | 0.00 | 0.00 | 0.00 | 32 | 1020.7 |
| 20260503232018 | 23 | 96 | 12.9 | 17.7 | 0.00 | 0.00 | 0.00 | 29 | 1020.6 |
| 20260503231429 | 23 | 169 | 3.2 | 14.5 | 0.00 | 0.00 | 0.00 | 28 | 1020.8 |
| 20260503230817 | 23 | 160 | 4.8 | 17.7 | 0.00 | 0.00 | 0.00 | 30 | 1020.8 |
| 20260503230216 | 23 | 124 | 3.2 | 16.1 | 0.00 | 0.00 | 0.00 | 31 | 1020.8 |
| 20260503225629 | 23 | 172 | 4.8 | 17.7 | 0.00 | 0.00 | 0.00 | 29 | 1020.8 |
| 20260503225016 | 23 | 123 | 4.8 | 19.3 | 0.00 | 0.00 | 0.00 | 32 | 1020.8 |
| 20260503224416 | 23 | 160 | 4.8 | 16.1 | 0.00 | 0.00 | 0.00 | 35 | 1020.9 |
| 20260503223829 | 22 | 106 | 8.0 | 19.3 | 0.00 | 0.00 | 0.00 | 37 | 1020.9 |
| 20260503223216 | 22 | 143 | 0.0 | 22.5 | 0.00 | 0.00 | 0.00 | 38 | 1021.0 |
| 20260503222617 | 23 | 128 | 8.0 | 17.7 | 0.00 | 0.00 | 0.00 | 37 | 1021.0 |
| 20260503222029 | 22 | 142 | 6.4 | 20.9 | 0.00 | 0.00 | 0.00 | 40 | 1021.2 |
| 20260503221416 | 22 | 113 | 9.7 | 20.9 | 0.00 | 0.00 | 0.00 | 41 | 1021.2 |
| 20260503220816 | 22 | 122 | 4.8 | 19.3 | 0.00 | 0.00 | 0.00 | 42 | 1021.3 |
| 20260503220216 | 22 | 106 | 6.4 | 16.1 | 0.00 | 0.00 | 0.00 | 40 | 1021.3 |
| 20260503215629 | 22 | 175 | 4.8 | 24.1 | 0.00 | 0.00 | 0.00 | 41 | 1021.4 |
| 20260503215017 | 22 | 102 | 8.0 | 19.3 | 0.00 | 0.00 | 0.00 | 41 | 1021.4 |
| 20260503214429 | 22 | 162 | 0.0 | 22.5 | 0.00 | 0.00 | 0.00 | 42 | 1021.6 |
| 20260503213816 | 22 | 121 | 11.3 | 20.9 | 0.00 | 0.00 | 0.00 | 43 | 1021.7 |
| 20260503213217 | 21 | 95 | 9.7 | 20.9 | 0.00 | 0.00 | 0.00 | 44 | 1021.9 |
| 20260503212616 | 22 | 116 | 8.0 | 20.9 | 0.00 | 0.00 | 0.00 | 45 | 1021.9 |
| 20260503212016 | 21 | 108 | 11.3 | 12.9 | 0.00 | 0.00 | 0.00 | 46 | 1022.0 |
| 20260503211416 | 21 | 60 | 1.6 | 20.9 | 0.00 | 0.00 | 0.00 | 46 | 1022.0 |
| 20260503210817 | 21 | 101 | 12.9 | 22.5 | 0.00 | 0.00 | 0.00 | 48 | 1022.1 |
| 20260503210216 | 21 | 159 | 3.2 | 22.5 | 0.00 | 0.00 | 0.00 | 47 | 1022.1 |
| 20260503205616 | 21 | 124 | 11.3 | 24.1 | 0.00 | 0.00 | 0.00 | 48 | 1022.3 |
| 20260503205017 | 20 | 144 | 8.0 | 27.4 | 0.00 | 0.00 | 0.00 | 49 | 1022.4 |
| 20260503204417 | 21 | 105 | 9.7 | 20.9 | 0.00 | 0.00 | 0.00 | 49 | 1022.5 |
| 20260503203816 | 20 | 114 | 8.0 | 19.3 | 0.00 | 0.00 | 0.00 | 50 | 1022.7 |
| 20260503203216 | 20 | 131 | 6.4 | 20.9 | 0.00 | 0.00 | 0.00 | 50 | 1022.7 |
| 20260503202616 | 20 | 103 | 11.3 | 27.4 | 0.00 | 0.00 | 0.00 | 49 | 1022.9 |
| 20260503202017 | 20 | 113 | 12.9 | 24.1 | 0.00 | 0.00 | 0.00 | 51 | 1023.1 |
| 20260503201416 | 20 | 116 | 8.0 | 20.9 | 0.00 | 0.00 | 0.00 | 51 | 1023.1 |
| 20260503200816 | 20 | 161 | 12.9 | 25.7 | 0.00 | 0.00 | 0.00 | 50 | 1023.1 |
| 20260503200217 | 20 | 118 | 9.7 | 22.5 | 0.00 | 0.00 | 0.00 | 54 | 1023.3 |
| 20260503195617 | 20 | 115 | 9.7 | 25.7 | 0.00 | 0.00 | 0.00 | 53 | 1023.5 |
| 20260503195016 | 20 | 121 | 12.9 | 20.9 | 0.00 | 0.00 | 0.00 | 53 | 1023.4 |
| 20260503194416 | 19 | 115 | 9.7 | 22.5 | 0.00 | 0.00 | 0.00 | 52 | 1023.5 |
| 20260503193816 | 20 | 131 | 4.8 | 20.9 | 0.00 | 0.00 | 0.00 | 51 | 1023.6 |
| 20260503193229 | 19 | 143 | 8.0 | 30.6 | 0.00 | 0.00 | 0.00 | 55 | 1023.7 |
| 20260503192617 | 19 | 99 | 6.4 | 17.7 | 0.00 | 0.00 | 0.00 | 54 | 1023.8 |
| 20260503192017 | 20 | 140 | 0.0 | 20.9 | 0.00 | 0.00 | 0.00 | 51 | 1023.9 |
| 20260503191416 | 18 | 83 | 0.0 | 20.9 | 0.00 | 0.00 | 0.00 | 55 | 1023.9 |
| 20260503190816 | 18 | 131 | 6.4 | 16.1 | 0.00 | 0.00 | 0.00 | 55 | 1024.2 |
| 20260503190216 | 18 | 94 | 12.9 | 17.7 | 0.00 | 0.00 | 0.00 | 55 | 1024.3 |
| 20260503185616 | 18 | 138 | 4.8 | 22.5 | 0.00 | 0.00 | 0.00 | 57 | 1024.3 |
| 20260503185029 | 18 | 178 | 3.2 | 22.5 | 0.00 | 0.00 | 0.00 | 57 | 1024.4 |
| 20260503184417 | 18 | 157 | 4.8 | 22.5 | 0.00 | 0.00 | 0.00 | 58 | 1024.5 |
| 20260503183816 | 18 | 118 | 4.8 | 20.9 | 0.00 | 0.00 | 0.00 | 58 | 1024.6 |
| 20260503183217 | 18 | 220 | 3.2 | 22.5 | 0.00 | 0.00 | 0.00 | 57 | 1024.7 |
| 20260503182616 | 18 | 173 | 6.4 | 19.3 | 0.00 | 0.00 | 0.00 | 58 | 1024.7 |
| 20260503182017 | 18 | 153 | 9.7 | 19.3 | 0.00 | 0.00 | 0.00 | 58 | 1024.7 |
| 20260503181418 | 18 | 143 | 8.0 | 19.3 | 0.00 | 0.00 | 0.00 | 58 | 1024.9 |
| 20260503180818 | 17 | 83 | 6.4 | 20.9 | 0.00 | 0.00 | 0.00 | 61 | 1024.9 |
| 20260503180217 | 17 | 135 | 6.4 | 17.7 | 0.00 | 0.00 | 0.00 | 60 | 1024.9 |
| 20260503175616 | 17 | 157 | 4.8 | 20.9 | 0.00 | 0.00 | 0.00 | 62 | 1025.0 |
| 20260503175017 | 18 | 174 | 9.7 | 20.9 | 0.00 | 0.00 | 0.00 | 61 | 1025.1 |
| 20260503174416 | 17 | 174 | 3.2 | 19.3 | 0.00 | 0.00 | 0.00 | 61 | 1025.1 |
| 20260503173829 | 17 | 152 | 9.7 | 20.9 | 0.00 | 0.00 | 0.00 | 63 | 1025.1 |
| 20260503173216 | 16 | 135 | 4.8 | 17.7 | 0.00 | 0.00 | 0.00 | 65 | 1025.1 |
| 20260503172618 | 17 | 118 | 4.8 | 16.1 | 0.00 | 0.00 | 0.00 | 63 | 1025.2 |
| 20260503172016 | 17 | 141 | 6.4 | 19.3 | 0.00 | 0.00 | 0.00 | 60 | 1025.3 |
| 20260503171416 | 16 | 151 | 6.4 | 17.7 | 0.00 | 0.00 | 0.00 | 65 | 1025.4 |
| 20260503170816 | 16 | 137 | 3.2 | 14.5 | 0.00 | 0.00 | 0.00 | 67 | 1025.4 |
| 20260503170217 | 16 | 130 | 8.0 | 17.7 | 0.00 | 0.00 | 0.00 | 68 | 1025.4 |
| 20260503150829 | 15 | 164 | 4.8 | 12.9 | 0.00 | 0.00 | 0.00 | 73 | 1025.4 |
| 20260503150216 | 14 | 131 | 3.2 | 11.3 | 0.00 | 0.00 | 0.00 | 75 | 1025.2 |
| 20260503140216 | 12 | 86 | 0.0 | 0.0 | 0.00 | 0.00 | 0.00 | 83 | 1024.9 |
| 20260503131416 | 12 | 230 | 0.0 | 0.0 | 0.00 | 0.00 | 0.00 | 86 | 1024.5 |
| 20260503130829 | 11 | 230 | 0.0 | 3.2 | 0.00 | 0.00 | 0.00 | 87 | 1024.5 |
| 20260503130216 | 12 | 271 | 0.0 | 0.0 | 0.00 | 0.00 | 0.00 | 89 | 1024.5 |
| 20260503120216 | 12 | 271 | 0.0 | 0.0 | 0.00 | 0.00 | 0.00 | 86 | 1023.7 |
| 20260503110817 | 11 | 278 | 0.0 | 0.0 | 0.00 | 0.00 | 0.00 | 81 | 1023.6 |
| 20260503110217 | 11 | 277 | 0.0 | 0.0 | 0.00 | 0.00 | 0.00 | 82 | 1023.6 |
| 20260503100216 | 11 | 272 | 0.0 | 3.2 | 0.00 | 0.00 | 0.00 | 81 | 1023.6 |
| 20260503090216 | 11 | 331 | 0.0 | 0.0 | 0.00 | 0.00 | 0.00 | 84 | 1023.9 |
| 20260503081416 | 10 | 326 | 0.0 | 4.8 | 0.00 | 0.00 | 0.00 | 85 | 1024.0 |
| 20260503080816 | 10 | 303 | 0.0 | 1.6 | 0.00 | 0.00 | 0.00 | 85 | 1023.9 |
| 20260503080216 | 10 | 327 | 0.0 | 4.8 | 0.00 | 0.00 | 0.00 | 86 | 1024.0 |
| 20260503072616 | 10 | 275 | 0.0 | 3.2 | 0.00 | 0.00 | 0.00 | 90 | 1024.5 |
| 20260503072028 | 10 | 320 | 0.0 | 4.8 | 0.00 | 0.00 | 0.00 | 91 | 1024.4 |
| 20260503071441 | 10 | 332 | 0.0 | 6.4 | 0.00 | 0.00 | 0.00 | 91 | 1024.5 |
| 20260503070816 | 9 | 318 | 0.0 | 4.8 | 0.00 | 0.00 | 0.00 | 91 | 1024.5 |
| 20260503070228 | 9 | 305 | 0.0 | 4.8 | 0.00 | 0.00 | 0.00 | 92 | 1024.5 |
| 20260503060216 | 7 | 278 | 0.0 | 0.0 | 0.00 | 0.00 | 0.00 | 94 | 1024.5 |
| 20260503055017 | 6 | 288 | 0.0 | 4.8 | 0.00 | 0.00 | 0.00 | 95 | 1024.7 |
| 20260503054416 | 6 | 308 | 1.6 | 3.2 | 0.00 | 0.00 | 0.00 | 94 | 1024.5 |
| 20260503053829 | 7 | 316 | 1.6 | 4.8 | 0.00 | 0.00 | 0.00 | 94 | 1024.6 |
| 20260503053217 | 7 | 285 | 1.6 | 3.2 | 0.00 | 0.00 | 0.00 | 94 | 1024.5 |
| 20260503052629 | 7 | 324 | 0.0 | 6.4 | 0.00 | 0.00 | 0.00 | 95 | 1024.5 |
| 20260503052017 | 7 | 302 | 3.2 | 9.7 | 0.00 | 0.00 | 0.00 | 95 | 1024.5 |
| 20260503051416 | 7 | 304 | 3.2 | 6.4 | 0.00 | 0.00 | 0.00 | 95 | 1024.3 |
| 20260503050816 | 7 | 316 | 3.2 | 4.8 | 0.00 | 0.00 | 0.00 | 94 | 1024.2 |
| 20260503050217 | 7 | 318 | 3.2 | 6.4 | 0.00 | 0.00 | 0.00 | 94 | 1024.2 |
| 20260503045618 | 7 | 265 | 3.2 | 6.4 | 0.00 | 0.00 | 0.00 | 94 | 1024.1 |
| 20260503045042 | 7 | 301 | 1.6 | 4.8 | 0.00 | 0.00 | 0.00 | 94 | 1024.1 |
| 20260503044429 | 7 | 273 | 0.0 | 6.4 | 0.00 | 0.00 | 0.00 | 95 | 1024.1 |
| 20260503043829 | 7 | 284 | 0.0 | 4.8 | 0.00 | 0.00 | 0.00 | 92 | 1024.1 |
| 20260503043217 | 7 | 267 | 0.0 | 4.8 | 0.00 | 0.00 | 0.00 | 93 | 1024.1 |
| 20260503042616 | 7 | 294 | 3.2 | 3.2 | 0.00 | 0.00 | 0.00 | 92 | 1024.1 |
| 20260503041416 | 8 | 269 | 3.2 | 8.0 | 0.00 | 0.00 | 0.00 | 92 | 1024.1 |
| 20260503040216 | 8 | 287 | 0.0 | 6.4 | 0.00 | 0.00 | 0.00 | 90 | 1023.9 |
| 20260503035643 | 8 | 269 | 1.6 | 8.0 | 0.00 | 0.00 | 0.00 | 90 | 1023.8 |
| 20260503035017 | 8 | 299 | 3.2 | 9.7 | 0.00 | 0.00 | 0.00 | 90 | 1023.6 |
| 20260503034417 | 8 | 299 | 3.2 | 4.8 | 0.00 | 0.00 | 0.00 | 89 | 1023.6 |
| 20260503033816 | 8 | 289 | 0.0 | 6.4 | 0.00 | 0.00 | 0.00 | 88 | 1023.6 |
| 20260503033219 | 9 | 303 | 3.2 | 11.3 | 0.00 | 0.00 | 0.00 | 88 | 1023.6 |
| 20260503032617 | 9 | 266 | 0.0 | 12.9 | 0.00 | 0.00 | 0.00 | 88 | 1023.6 |
| 20260503032018 | 10 | 289 | 3.2 | 6.4 | 0.00 | 0.00 | 0.00 | 86 | 1023.6 |
| 20260503031417 | 10 | 2 | 0.0 | 6.4 | 0.00 | 0.00 | 0.00 | 86 | 1023.3 |
| 20260503030817 | 10 | 323 | 0.0 | 8.0 | 0.00 | 0.00 | 0.00 | 86 | 1023.4 |
| 20260503030216 | 10 | 2 | 0.0 | 12.9 | 0.00 | 0.00 | 0.00 | 85 | 1023.3 |
| 20260503025617 | 10 | 36 | 0.0 | 12.9 | 0.00 | 0.00 | 0.00 | 86 | 1023.5 |
| 20260503025055 | 10 | 32 | 4.8 | 8.0 | 0.00 | 0.00 | 0.00 | 88 | 1023.3 |
| 20260503024420 | 8 | 334 | 0.0 | 4.8 | 0.00 | 0.00 | 0.00 | 88 | 1023.4 |
| 20260503023829 | 9 | 286 | 0.0 | 0.0 | 0.00 | 0.00 | 0.00 | 87 | 1023.3 |
| 20260503023217 | 9 | 286 | 0.0 | 0.0 | 0.00 | 0.00 | 0.00 | 86 | 1023.2 |
| 20260503022628 | 10 | 286 | 0.0 | 0.0 | 0.00 | 0.00 | 0.00 | 85 | 1023.1 |
| 20260503022016 | 10 | 302 | 0.0 | 4.8 | 0.00 | 0.00 | 0.00 | 84 | 1023.1 |
| 20260503021417 | 10 | 302 | 0.0 | 3.2 | 0.00 | 0.00 | 0.00 | 85 | 1022.8 |
| 20260503020816 | 11 | 287 | 0.0 | 1.6 | 0.00 | 0.00 | 0.00 | 82 | 1022.6 |
| 20260503020216 | 11 | 346 | 0.0 | 4.8 | 0.00 | 0.00 | 0.00 | 81 | 1022.5 |
| 20260503015629 | 11 | 340 | 0.0 | 8.0 | 0.00 | 0.00 | 0.00 | 81 | 1022.5 |
| 20260503015016 | 11 | 300 | 0.0 | 9.7 | 0.00 | 0.00 | 0.00 | 80 | 1022.2 |
| 20260503014416 | 11 | 303 | 3.2 | 12.9 | 0.00 | 0.00 | 0.00 | 80 | 1022.2 |
| 20260503013841 | 11 | 280 | 3.2 | 14.5 | 0.00 | 0.00 | 0.00 | 79 | 1022.0 |
| 20260503013216 | 11 | 345 | 3.2 | 19.3 | 0.00 | 0.00 | 0.00 | 78 | 1021.8 |
| 20260503012616 | 11 | 314 | 6.4 | 20.9 | 0.00 | 0.00 | 0.00 | 77 | 1021.8 |
| 20260503012016 | 12 | 19 | 4.8 | 19.3 | 0.00 | 0.00 | 0.00 | 75 | 1021.7 |
| 20260503011416 | 12 | 21 | 6.4 | 19.3 | 0.00 | 0.00 | 0.00 | 74 | 1021.5 |
| 20260503010816 | 12 | 0 | 3.2 | 22.5 | 0.00 | 0.00 | 0.00 | 72 | 1021.4 |
| 20260503010230 | 12 | 324 | 4.8 | 25.7 | 0.00 | 0.00 | 0.00 | 72 | 1021.4 |
| 20260503005617 | 12 | 329 | 6.4 | 27.4 | 0.00 | 0.00 | 0.00 | 71 | 1021.2 |
| 20260503005019 | 13 | 11 | 6.4 | 25.7 | 0.00 | 0.00 | 0.00 | 71 | 1021.2 |
| 20260503004416 | 13 | 315 | 8.0 | 17.7 | 0.00 | 0.00 | 0.00 | 70 | 1021.4 |
| 20260503003817 | 13 | 311 | 4.8 | 20.9 | 0.00 | 0.00 | 0.00 | 70 | 1021.2 |